Regional Weather Roundup
Issued by NWS

Home | Current Version | Previous Version | Graphics & Text | Print | Product List | Glossary Off
Versions: 1 2 3 4 5 6 7 8 9 10 11 12 13 14 15 16 17 18 19 20 21 22 23 24 25 26 27 28 29 30 31 32 33 34 35 36 37 38 39 40 41 42 43 44 45 46 47 48 49 50

000
ASUS43 KDMX 310707
RWRIA

WEATHER ROUNDUP FOR IOWA
NATIONAL WEATHER SERVICE DES MOINES IA
200 AM CDT THU JUL 31 2014

NOTE: "FAIR" INDICATES FEW OR NO CLOUDS BELOW 12,000 FEET WITH NO
SIGNIFICANT WEATHER AND/OR OBSTRUCTIONS TO VISIBILITY.

* - THESE STATIONS ARE NOT NWS STATIONS...THUS NOT UNDER NWS
QUALITY CONTROL.  THEY ALSO DO NOT REPORT WEATHER SUCH
AS PRECIPITATION OR FOG.

IAZ001>003-012>014-020>022-031>034-043>046-310800-
   NORTHWEST IOWA

CITY           SKY/WX    TMP DP  RH WIND       PRES   REMARKS
CARROLL *      CLOUDY    54  52  94 CALM      30.11S
CHEROKEE *     CLEAR     55  55 100 CALM      30.11S
DENISON *      CLEAR     55  55 100 CALM      30.10F FOG
LE MARS *      CLEAR     54  54 100 CALM      30.11F
ORANGE CITY *  CLEAR     63  52  67 CALM      30.11S
SHELDON *      CLEAR     54  52  94 CALM      30.10S
SIOUX CITY     CLEAR     55  54  96 CALM      30.11S
SPENCER        CLEAR     55  54  96 CALM      30.10F
STORM LAKE *   CLEAR     63  57  82 W7        30.12S
$$

IAZ055>058-069>071-079>083-090>094-310800-
   SOUTHWEST IOWA

CITY           SKY/WX    TMP DP  RH WIND       PRES   REMARKS
ATLANTIC *     CLOUDY    55  54  94 CALM      30.11F
AUDUBON *      CLEAR     55  52  88 CALM      30.13S
CLARINDA *     CLEAR     54  52  94 CALM      30.12F
COUNCIL BLFS *   N/A     61  57  88 CALM      30.11F
CRESTON *      CLEAR     61  55  82 CALM      30.11F
HARLAN  *      CLEAR     54  54 100 CALM      30.15F
LAMONI         CLEAR     63  55  75 N3        30.10F
RED OAK *      CLEAR     55  52  88 CALM      30.11F
SHENANDOAH *   CLEAR     55  54  94 CALM      30.12F
$$

IAZ047>049-059>061-072>074-084-310800-
   CENTRAL IOWA

CITY           SKY/WX    TMP DP  RH WIND       PRES   REMARKS
AMES           CLEAR     57  55  93 CALM      30.09S
ANKENY *       CLEAR     57  55  94 CALM      30.09F
CHARITON *     CLEAR     61  57  88 CALM      30.10S
DES MOINES     CLEAR     65  58  78 W3        30.09S
GRINNELL*      CLEAR     61  57  88 NW3       30.09F
KNOXVILLE *    CLEAR     61  57  88 CALM      30.08S
MARSHALLTOWN   CLEAR     61  59  93 NW5       30.08F
PELLA *        CLEAR     63  57  82 CALM      30.10S
PERRY *          N/A     57  55  94 W5        30.10S
$$

IAZ004>006-015-016-023>025-035-036-310800-
   NORTH CENTRAL IOWA

CITY           SKY/WX    TMP DP  RH WIND       PRES   REMARKS
ALGONA *       CLEAR     61  57  88 W3        30.09F
CLARION *      CLEAR     57  55  94 CALM      30.09S
ESTHERVILLE    CLEAR     56  54  93 SW6       30.09F
FORT DODGE *   CLEAR     57  55  94 CALM      30.10F
MASON CITY     CLEAR     58  55  90 CALM      30.09F
FOREST CITY *  FOG       54  54 100 CALM      30.09S VSB 1
IOWA FALLS *     N/A     59  55  88 W3        30.10S
$$

IAZ007>011-017>019-026>030-037>042-050>054-066-310800-
   NORTHEAST IOWA

CITY           SKY/WX    TMP DP  RH WIND       PRES   REMARKS
CEDAR RAPIDS   CLEAR     60  59  96 SW3       30.07S
CHARLES CITY * CLEAR     59  57  94 W5        30.08F
CLINTON *      CLEAR     57  55  94 W6        30.09S
DECORAH *      PTCLDY    61  59  94 SW3       30.05F
DUBUQUE        CLEAR     59  57  93 SW5       30.06F
MONTICELLO *   CLEAR     57  57 100 CALM      30.06F
OELWEIN *      CLEAR     61  59  94 NW6       30.08S
WATERLOO       CLEAR     61  58  90 CALM      30.06F
$$

IAZ064-065-067-068-078-310800-
   EAST CENTRAL IOWA

CITY           SKY/WX    TMP DP  RH WIND       PRES   REMARKS
DAVENPORT      CLEAR     57  55  93 SW3       30.07S
IOWA CITY      CLEAR     63  60  90 CALM      30.08F
MT. PLEASANT * CLEAR     61  57  88 CALM      30.08S
MUSCATINE *    CLEAR     61  57  88 CALM      30.06F
QUAD CITIES    CLEAR     60  57  89 SW3       30.06S
$$

IAZ062-063-075>077-085>089-095>099-310800-
   SOUTHEAST IOWA

CITY           SKY/WX    TMP DP  RH WIND       PRES   REMARKS
BURLINGTON     CLEAR     63  59  87 NW5       30.07S
FAIRFIELD *    CLEAR     61  57  88 W5        30.08F
FORT MADISON * CLEAR     63  61  94 CALM      30.08F
KEOKUK *       CLEAR     61  61 100 CALM      30.07S
OSKALOOSA *      N/A     61  59  94 W5        30.09S
CENTERVILLE *  CLEAR     57  57 100 W3        30.11F
OTTUMWA        CLEAR     59  57  93 W3        30.08S
WASHINGTON *   CLEAR     63  59  88 W6        30.08S
$$

ABBREVIATIONS USED IN REMARKS
   TC - TEMPERATURES IN CELSIUS
  WCI - WIND CHILL INDEX
   HX - HEAT INDEX
  VSB - VISIBILITY
$$



USA.gov is the U.S. government's official web portal to all federal, state and local government web resources and services.